Date String (YYYY-MM-DD hh:mm:ss) UTC,Instrument flags,absolute air pressure of the measurement (hPa),sample flow rate (lpm),inlet stack bypass flow (lpm),air temperature of the measurement (°C),ambient temperature measured by the external sensor (°C),aerosol sample conditioner tube jacket temperature (°C),OPC LED temperature (°C),internal box temperature (°C),relative humidity of the measurement (%),span deviation,mass concentration of particles derived from Lorenz-Mie calculation of OPC scattering (μg/m³),mass concentration of particles derived from Lorenz-Mie calculation of OPC scattering (μg/m³),mass concentration of particles derived from Lorenz-Mie calculation of OPC scattering (μg/m³)
DateTimeUTC,F1_M11,P_M11,Q1_M11,Q2_M11,T1_M11,T2_M11,T3_M11,T4_M11,T5_M11,U1_M11,ZSPAN_M11,X0_M11,X2_M11,X1_M11
2024-03-03 15:00:00,SystemResetWarning,0816.9,5.00,000.00,018.3,017.2,000.0,027.0,020.0,10.8,0000.0,0000.72,0000.36,0000.16
2024-03-03 15:01:00,SystemResetWarning,0816.8,5.00,000.00,018.3,017.2,000.0,027.0,020.0,10.7,0000.0,0000.72,0000.36,0000.15
2024-03-03 15:02:00,SystemResetWarning,0816.9,5.00,000.00,018.3,017.2,000.0,027.0,020.0,10.8,0000.0,0000.83,0000.37,0000.15
2024-03-03 15:03:00,SystemResetWarning,0816.9,5.00,000.00,018.3,017.2,000.0,027.0,020.0,10.7,0000.0,0000.97,0000.40,0000.16
2024-03-03 15:04:00,SystemResetWarning,0816.9,5.00,000.00,018.3,017.2,000.0,027.0,020.0,10.8,0000.0,0001.00,0000.41,0000.16
2024-03-03 15:05:00,SystemResetWarning,0816.9,5.00,000.00,018.3,017.2,000.0,027.0,020.0,10.7,0000.0,0001.05,0000.41,0000.15
2024-03-03 15:06:00,SystemResetWarning,0816.9,5.00,000.00,018.3,017.2,000.0,027.0,020.0,11.1,0000.0,0001.42,0000.45,0000.16
2024-03-03 15:07:00,SystemResetWarning,0816.9,5.00,000.00,018.3,017.2,000.0,027.0,020.0,11.3,0000.0,0001.47,0000.47,0000.15
2024-03-03 15:08:00,SystemResetWarning,0816.9,5.00,000.00,018.3,017.1,000.0,027.0,020.0,10.8,0000.0,0001.38,0000.43,0000.15
2024-03-03 15:09:00,SystemResetWarning,0816.9,5.00,000.00,018.3,017.1,000.0,027.0,020.0,10.6,0000.0,0001.38,0000.41,0000.15
2024-03-03 15:10:00,SystemResetWarning,0816.9,5.00,000.00,018.3,017.1,000.0,027.0,020.0,10.8,0000.0,0001.49,0000.43,0000.15
2024-03-03 15:11:00,SystemResetWarning,0816.9,4.99,000.00,018.3,017.1,000.0,027.0,020.0,11.1,0000.0,0001.62,0000.45,0000.16
2024-03-03 15:12:00,SystemResetWarning,0816.9,5.00,000.00,018.3,017.1,000.0,027.0,020.0,10.7,0000.0,0001.73,0000.49,0000.16
2024-03-03 15:13:00,SystemResetWarning,0816.8,5.00,000.00,018.3,017.1,000.0,027.0,020.0,11.0,0000.0,0001.67,0000.49,0000.17
2024-03-03 15:14:00,SystemResetWarning,0816.9,5.00,000.00,018.3,017.0,000.0,027.0,020.0,10.7,0000.0,0001.52,0000.47,0000.17
2024-03-03 15:15:00,SystemResetWarning,0816.9,5.02,000.00,018.3,017.0,000.0,027.0,020.0,10.9,0000.0,0001.48,0000.47,0000.17
2024-03-03 15:16:00,SystemResetWarning,0816.8,4.99,000.00,018.3,017.0,000.0,027.0,020.0,11.1,0000.0,0001.47,0000.47,0000.18
2024-03-03 15:17:00,SystemResetWarning,0816.9,4.99,000.00,018.3,017.0,000.0,027.0,020.0,10.7,0000.0,0001.16,0000.44,0000.18
2024-03-03 15:18:00,SystemResetWarning,0816.9,5.00,000.00,018.3,017.0,000.0,027.0,020.0,10.9,0000.0,0001.12,0000.46,0000.18
2024-03-03 15:19:00,SystemResetWarning,0816.9,4.99,000.00,018.3,017.0,000.0,027.0,020.0,11.2,0000.0,0001.22,0000.50,0000.18
2024-03-03 15:20:00,SystemResetWarning,0816.9,5.01,000.00,018.3,017.0,000.0,027.0,020.0,10.8,0000.0,0001.11,0000.48,0000.18
2024-03-03 15:21:00,SystemResetWarning,0816.9,5.00,000.00,018.3,017.0,000.0,027.0,020.0,11.0,0000.0,0001.08,0000.48,0000.18
2024-03-03 15:22:00,SystemResetWarning,0816.9,5.01,000.00,018.3,017.0,000.0,027.0,020.0,10.9,0000.0,0001.10,0000.47,0000.18
2024-03-03 15:23:00,SystemResetWarning,0816.9,5.00,000.00,018.3,017.0,000.0,027.0,020.0,11.2,0000.0,0001.22,0000.48,0000.18
2024-03-03 15:24:00,SystemResetWarning,0816.9,5.00,000.00,018.3,017.1,000.0,027.0,020.0,11.3,0000.0,0001.18,0000.46,0000.18
2024-03-03 15:25:00,SystemResetWarning,0816.9,5.00,000.00,018.3,017.1,000.0,027.0,020.0,11.0,0000.0,0001.20,0000.46,0000.18
2024-03-03 15:26:00,SystemResetWarning,0817.0,5.00,000.00,018.3,017.1,000.0,027.0,020.0,11.0,0000.0,0001.24,0000.46,0000.18
2024-03-03 15:27:00,SystemResetWarning,0817.0,5.01,000.00,018.2,017.1,000.0,027.0,020.0,10.7,0000.0,0001.31,0000.49,0000.18
2024-03-03 15:28:00,SystemResetWarning,0817.0,5.00,000.00,018.2,017.1,000.0,027.0,020.0,10.9,0000.0,0001.26,0000.47,0000.18
2024-03-03 15:29:00,SystemResetWarning,0817.1,4.99,000.00,018.2,017.1,000.0,027.0,020.0,10.9,0000.0,0001.95,0000.43,0000.18
2024-03-03 15:30:00,SystemResetWarning,0817.1,4.99,000.00,018.2,017.1,000.0,027.0,020.0,11.1,0000.0,0001.94,0000.38,0000.17
2024-03-03 15:31:00,SystemResetWarning,0817.2,5.00,000.00,018.2,017.0,000.0,027.0,020.0,10.8,0000.0,0001.94,0000.38,0000.17
2024-03-03 15:32:00,SystemResetWarning,0817.3,5.01,000.00,018.2,017.0,000.0,027.0,020.0,10.9,0000.0,0001.87,0000.37,0000.18
2024-03-03 15:33:00,SystemResetWarning,0817.4,5.00,000.00,018.2,017.0,000.0,027.0,020.0,11.2,0000.0,0001.78,0000.37,0000.18
2024-03-03 15:34:00,SystemResetWarning,0817.3,4.99,000.00,018.2,017.0,000.0,027.0,020.0,11.1,0000.0,0001.57,0000.33,0000.18
2024-03-03 15:35:00,SystemResetWarning,0817.3,4.99,000.00,018.2,017.0,000.0,027.0,020.0,11.0,0000.0,0001.56,0000.34,0000.18
2024-03-03 15:36:00,SystemResetWarning,0817.3,5.01,000.00,018.2,017.0,000.0,027.0,020.0,10.7,0000.0,0001.54,0000.34,0000.17
2024-03-03 15:37:00,SystemResetWarning,0817.3,5.02,000.00,018.2,017.2,000.0,027.0,020.1,10.7,0000.0,0001.57,0000.35,0000.17
2024-03-03 15:38:00,SystemResetWarning,0817.4,5.00,000.00,018.4,018.2,000.0,027.1,020.6,11.0,0000.0,0001.59,0000.35,0000.17
2024-03-03 15:39:00,SystemResetWarning,0817.4,5.00,000.00,018.7,018.9,000.0,027.1,021.0,10.7,0000.0,0001.66,0000.35,0000.17
2024-03-03 15:40:00,SystemResetWarning,0817.4,4.99,000.00,018.7,018.7,000.0,027.1,020.8,11.0,0000.0,0001.25,0000.39,0000.17
2024-03-03 15:41:00,SystemResetWarning,0817.4,5.00,000.00,018.7,018.5,000.0,027.0,020.6,11.6,0000.0,0000.93,0000.41,0000.17
2024-03-03 15:42:00,SystemResetWarning,0817.4,5.00,000.00,018.6,018.4,000.0,027.0,020.4,11.8,0000.0,0000.96,0000.42,0000.17
2024-03-03 15:43:00,SystemResetWarning,0817.3,5.01,000.00,018.6,018.2,000.0,027.0,020.3,11.2,0000.0,0001.03,0000.40,0000.17
2024-03-03 15:44:00,SystemResetWarning,0817.4,5.01,000.00,018.5,018.0,000.0,027.0,020.2,11.3,0000.0,0000.99,0000.39,0000.17
2024-03-03 15:45:00,SystemResetWarning,0817.4,5.01,000.00,018.5,017.8,000.0,027.0,020.1,11.6,0000.0,0001.03,0000.40,0000.16
2024-03-03 15:46:00,SystemResetWarning,0817.3,5.00,000.00,018.4,017.7,000.0,027.0,020.0,11.6,0000.0,0001.08,0000.42,0000.17
2024-03-03 15:47:00,SystemResetWarning,0817.4,4.99,000.00,018.4,017.6,000.0,027.0,020.0,12.0,0000.0,0001.08,0000.41,0000.17
2024-03-03 15:48:00,SystemResetWarning,0817.3,4.99,000.00,018.4,017.5,000.0,027.0,020.0,12.6,0000.0,0001.12,0000.43,0000.18
2024-03-03 15:49:00,SystemResetWarning,0817.4,5.01,000.00,018.4,017.5,000.0,027.0,020.0,11.8,0000.0,0001.08,0000.42,0000.18
2024-03-03 15:50:00,SystemResetWarning,0817.4,5.00,000.00,018.3,017.4,000.0,027.0,020.0,11.5,0000.0,0001.04,0000.42,0000.18
2024-03-03 15:51:00,SystemResetWarning,0817.4,5.00,000.00,018.3,017.4,000.0,027.0,020.0,12.0,0000.0,0001.26,0000.42,0000.18
2024-03-03 15:52:00,SystemResetWarning,0817.4,5.00,000.00,018.3,017.3,000.0,027.0,020.0,12.0,0000.0,0001.40,0000.42,0000.18
2024-03-03 15:53:00,SystemResetWarning,0817.4,5.00,000.00,018.3,017.3,000.0,027.0,020.0,11.8,0000.0,0001.42,0000.44,0000.19
2024-03-03 15:54:00,SystemResetWarning,0817.4,5.00,000.00,018.3,017.3,000.0,027.0,020.0,11.8,0000.0,0001.34,0000.43,0000.20
2024-03-03 15:55:00,SystemResetWarning,0817.4,5.00,000.00,018.3,017.2,000.0,027.0,020.0,11.6,0000.0,0001.31,0000.44,0000.19
2024-03-03 15:56:00,SystemResetWarning,0817.5,5.00,000.00,018.3,017.2,000.0,027.0,020.0,12.0,0000.0,0001.30,0000.44,0000.19
2024-03-03 15:57:00,SystemResetWarning,0817.4,4.99,000.00,018.3,017.2,000.0,027.0,020.0,12.1,0000.0,0001.34,0000.44,0000.18
2024-03-03 15:58:00,SystemResetWarning,0817.4,5.00,000.00,018.3,017.2,000.0,027.0,020.0,11.8,0000.0,0001.40,0000.45,0000.17
2024-03-03 15:59:00,SystemResetWarning,0817.5,5.01,000.00,018.3,017.1,000.0,027.0,020.0,12.1,0000.0,0001.35,0000.44,0000.17
